Dewpoint
58 58 57 58 60 64 68 70 71 74 73 73 71 72 71 69 72 72 75 75 75 76 78 76 77 77 76 75 75 75 74 74 74 73 72 70 72 71 68 68 71 72 72
57 58 58 60 62 65 68 71 73 74 74 74 74 75 77 71 73 74 76 75 76 77 75 77 76 77 76 76 75 77 75 74 75 72 72 68 70 70 67 71 71 72 75
58 58 59 60 62 67 67 71 73 73 74 75 73 74 76 76 74 75 73 72 74 76 76 77 75 76 77 76 75 75 75 73 73 73 73 68 67 68 67 66 66 68 70
56 59 58 60 61 65 66 71 73 74 73 76 73 75 74 71 73 73 76 73 76 75 74 76 78 77 78 75 75 75 74 73 72 73 73 73 71 68 66 68 66 68 72
56 57 58 61 62 64 65 69 74 75 76 76 77 75 75 76 76 76 76 76 78 76 75 76 76 75 77 77 76 76 75 74 73 72 73 74 73 73 71 66 66 67 72
55 58 58 62 61 63 64 68 74 75 76 76 76 77 76 76 76 75 76 77 77 76 75 74 74 75 75 74 75 75 74 74 74 74 74 73 71 71 70 69 66 66 67
51 57 59 60 62 65 65 68 73 74 75 74 74 75 75 77 76 76 76 76 75 74 74 75 73 73 73 73 73 73 73 73 73 73 71 71 73 73 72 71 69 64 65
50 54 60 62 64 64 65 68 72 74 74 74 75 77 78 76 77 77 76 75 75 71 73 73 71 70 70 70 71 68 69 69 67 69 71 69 67 66 68 67 65 62 62
52 56 59 61 64 65 66 68 72 73 72 71 76 77 77 76 76 76 76 73 73 70 70 68 68 68 69 70 70 68 69 69 68 67 68 68 65 65 64 66 67 64 60
52 57 58 59 63 62 65 68 71 72 72 72 74 75 75 76 75 74 72 71 70 70 69 68 68 69 69 69 69 67 68 68 67 64 67 67 66 65 64 64 64 64 63
54 57 59 61 61 63 65 71 71 71 71 72 73 74 73 72 72 70 70 70 69 70 69 70 69 69 68 69 69 68 68 66 68 68 67 67 68 67 66 66 65 65 66
56 57 59 61 61 63 64 68 69 68 69 72 73 72 72 70 67 68 68 69 69 69 69 70 70 69 68 68 67 67 66 66 66 67 68 67 66 68 68 68 68 67 68
58 57 58 61 62 63 65 67 68 68 70 74 72 71 69 66 66 67 67 68 69 69 67 69 69 68 68 67 67 68 66 66 66 66 67 66 67 66 66 66 66 66 65
60 59 58 61 64 67 69 71 70 69 73 71 72 70 67 66 64 67 69 68 69 69 68 69 69 68 67 67 65 65 65 65 64 65 66 67 66 66 65 63 64 65 65
57 59 59 64 67 69 71 70 69 70 72 72 71 69 70 69 68 68 68 68 68 68 69 69 68 67 64 59 65 65 64 64 63 63 63 66 65 62 64 62 64 64 63
58 61 63 66 68 69 72 70 70 72 73 73 70 70 70 69 68 68 68 68 68 68 68 68 67 66 58 61 62 62 62 63 63 62 62 62 61 64 64 64 64 64 63
59 62 63 67 68 70 72 72 73 73 73 73 71 70 70 68 68 67 68 68 68 68 68 67 66 66 66 61 62 60 62 61 62 63 61 57 53 64 62 61 62 64 64
62 64 65 68 70 70 71 72 72 73 73 73 70 70 69 68 68 67 67 68 68 68 68 67 66 66 65 60 61 60 63 62 62 62 61 60 62 59 60 60 60 62 63
57 65 64 68 72 72 73 73 72 72 71 70 69 69 68 68 67 67 67 67 67 67 66 66 66 66 66 60 60 61 62 60 61 62 60 58 61 57 57 59 59 61 61
56 64 64 67 71 73 72 72 72 71 70 69 69 69 69 69 68 68 68 69 68 66 64 66 66 62 65 59 59 60 60 58 57 61 61 58 60 56 55 59 58 57 58
64 66 66 69 71 72 71 70 70 69 70 69 69 69 70 70 69 69 69 68 67 67 67 66 66 65 63 62 58 56 59 57 53 51 49 58 55 54 54 55 58 57 55
69 71 70 70 70 71 71 69 69 70 70 70 69 70 70 68 68 68 67 67 66 66 65 66 64 62 65 61 56 54 54 55 54 53 55 57 54 53 54 55 57 55 55
70 69 70 69 70 68 71 68 69 69 67 67 67 69 68 69 69 68 66 65 66 63 62 60 61 60 62 61 57 54 54 52 52 52 52 52 52 53 53 53 53 56 55
68 69 68 67 67 67 67 67 69 70 68 67 67 68 69 68 68 65 64 63 62 61 60 61 61 62 61 60 57 55 53 53 52 53 52 51 54 54 54 53 56 56 55
68 68 67 67 66 66 66 68 68 68 66 67 67 68 67 66 66 66 65 63 66 62 62 61 61 60 60 57 53 54 57 57 53 53 56 54 54 53 53 53 54 55 56
66 67 66 66 65 65 68 68 68 68 68 68 68 67 63 64 63 62 63 54 52 50 50 50 56 60 53 49 47 43 43 44 45 52 52 50 51 52 55 57 57 58 57
Lifted_Index
-2 -2 -2 -2 -3 -4 -4 -5 -5 -5 -5 -5 -5 -5 -5 -4 -4 -4 -5 -5 -5 -5 -5 -5 -5 -5 -5 -5 -5 -5 -5 -4 -4 -5 -4 -4 -3 -2 -2 -3 -3 -3 -3
-2 -2 -2 -2 -3 -4 -4 -5 -5 -5 -5 -6 -6 -6 -5 -5 -5 -5 -5 -4 -5 -6 -5 -5 -5 -5 -5 -5 -5 -5 -5 -4 -4 -4 -4 -4 -3 -2 -1 -2 -2 -2 -3
-3 -3 -3 -3 -3 -3 -4 -5 -5 -5 -5 -6 -6 -6 -6 -5 -5 -5 -5 -4 -5 -6 -6 -5 -5 -5 -5 -5 -5 -5 -5 -4 -4 -4 -4 -4 -3 -2 -1 -1 -1 -2 -3
-3 -3 -3 -3 -3 -3 -4 -5 -6 -6 -6 -6 -6 -6 -6 -5 -6 -6 -5 -5 -5 -6 -6 -6 -6 -6 -5 -5 -5 -5 -4 -4 -4 -4 -4 -4 -4 -3 -2 -1 -0 -1 -3
-3 -3 -3 -3 -3 -3 -4 -5 -6 -6 -6 -7 -7 -6 -6 -6 -6 -6 -6 -6 -6 -6 -6 -5 -5 -5 -5 -4 -4 -4 -4 -4 -4 -4 -4 -4 -4 -5 -4 -2 -1 -1 -2
-3 -3 -3 -3 -3 -3 -4 -5 -6 -7 -7 -7 -7 -7 -7 -6 -6 -6 -6 -6 -6 -6 -5 -5 -4 -4 -4 -4 -3 -3 -4 -4 -4 -4 -3 -3 -4 -5 -5 -3 -2 -2 -2
-2 -3 -3 -3 -4 -4 -4 -5 -6 -7 -7 -7 -7 -7 -7 -7 -7 -7 -6 -6 -5 -5 -4 -4 -3 -3 -2 -2 -2 -2 -2 -3 -3 -2 -2 -2 -3 -4 -4 -4 -3 -1 -1
-2 -3 -3 -4 -4 -4 -4 -5 -6 -7 -7 -7 -7 -7 -8 -7 -7 -7 -7 -6 -4 -3 -3 -2 -1 -1 -0 -0 -0 -0 -1 -1 -0 -0 -0 -1 -1 -1 -1 -1 -1 -0 0
-3 -3 -3 -3 -3 -4 -4 -5 -6 -7 -7 -7 -8 -8 -8 -8 -8 -7 -6 -4 -3 -2 -1 0 1 1 1 1 0 1 1 1 1 2 1 1 1 1 1 1 1 1 2
-3 -3 -3 -3 -3 -3 -4 -5 -6 -6 -7 -7 -8 -8 -8 -8 -7 -5 -4 -2 -1 0 1 1 1 1 1 1 1 1 2 2 2 2 2 2 2 2 2 2 2 2 2
-4 -4 -3 -3 -3 -3 -4 -6 -6 -7 -7 -7 -7 -7 -7 -6 -5 -3 -2 -0 0 1 1 1 1 1 1 1 2 2 2 2 2 2 2 2 2 2 2 2 2 2 2
-5 -4 -4 -4 -3 -4 -4 -6 -6 -7 -7 -7 -7 -7 -6 -4 -3 -2 -1 0 1 1 1 1 1 2 2 2 2 2 2 3 2 2 2 2 1 1 1 1 1 1 1
-5 -5 -5 -4 -4 -4 -5 -6 -6 -6 -7 -7 -7 -6 -4 -3 -2 -1 -0 0 1 1 1 1 1 2 2 2 3 3 3 3 3 2 2 2 2 2 2 2 1 1 1
-6 -6 -5 -5 -5 -6 -6 -6 -6 -6 -7 -7 -7 -5 -4 -2 -1 -0 0 0 1 1 1 1 1 2 2 2 3 3 3 4 4 3 3 2 2 3 3 3 3 2 2
-6 -6 -6 -6 -7 -7 -7 -7 -6 -7 -7 -7 -6 -5 -3 -2 -1 -0 -0 0 0 1 1 1 1 2 2 3 3 4 4 4 4 4 4 3 3 4 4 4 3 3 3
-6 -7 -7 -7 -8 -8 -8 -7 -7 -7 -8 -7 -6 -4 -3 -2 -1 -1 -1 -0 0 0 1 1 1 2 2 3 4 4 4 4 4 5 5 5 5 4 4 4 4 3 3
-7 -7 -8 -8 -8 -9 -9 -8 -8 -8 -8 -7 -6 -4 -3 -2 -2 -1 -1 -1 -0 0 0 1 1 2 2 3 4 5 5 4 4 5 6 6 5 4 4 4 4 3 3
-7 -7 -8 -9 -9 -9 -9 -9 -8 -8 -7 -6 -5 -4 -3 -3 -2 -1 -1 -0 -0 0 1 1 2 2 2 3 4 4 5 4 4 4 5 6 5 5 5 5 4 3 3
-6 -7 -8 -9 -9 -10 -9 -9 -8 -7 -7 -6 -5 -4 -3 -3 -2 -2 -1 -1 -0 0 1 1 2 2 2 3 4 4 5 5 4 4 5 6 6 5 6 6 5 4 3
-7 -8 -9 -9 -10 -10 -9 -8 -8 -7 -6 -5 -5 -4 -4 -3 -3 -2 -1 -1 0 1 1 2 2 3 3 4 4 5 5 5 5 5 6 6 6 6 6 7 6 5 4
-8 -8 -8 -8 -9 -9 -8 -8 -7 -6 -5 -5 -4 -4 -4 -3 -3 -2 -1 -0 0 1 1 2 2 3 3 4 5 6 6 7 7 7 7 6 5 6 7 7 7 6 6
-8 -8 -7 -6 -6 -7 -7 -7 -6 -5 -4 -4 -4 -4 -4 -3 -2 -2 -1 -0 0 1 1 1 2 2 2 4 5 7 7 8 9 9 8 7 7 7 8 8 7 7 7
-8 -8 -7 -5 -5 -4 -4 -5 -5 -5 -4 -3 -3 -4 -4 -3 -2 -2 -1 -1 0 1 1 1 2 2 2 3 5 6 7 8 9 9 8 8 8 8 8 7 7 7 7
-8 -7 -6 -5 -4 -3 -3 -3 -4 -4 -4 -3 -3 -3 -4 -3 -2 -2 -1 -0 0 1 1 2 2 2 2 3 4 5 5 7 8 8 8 8 7 7 7 6 6 6 6
-7 -7 -6 -5 -4 -3 -3 -3 -4 -4 -3 -3 -3 -3 -3 -3 -2 -2 -1 0 1 2 2 3 3 3 3 3 4 4 5 6 7 7 7 7 6 6 5 5 5 5 5
-7 -6 -5 -5 -4 -3 -3 -4 -4 -4 -4 -3 -3 -3 -3 -3 -3 -2 -1 1 2 3 3 4 4 3 4 4 4 4 5 6 7 8 7 7 6 5 4 4 4 4 4